[[[{"header":{"parameterUnit":"kt","parameterCategory":2,"dx":1,"dy":1,"la1":30.253999710083008,"la2":30.299108505249023,"lo1":-89.0895004272461,"lo2":-89.04439544677734,"nx":28,"ny":28,"refTime":"2022-09-29T21:00:00:Z","depth":0,"parameterNumber":1,"parameterNumberName":"U-component_of_WINDS"},"data":[-0.7293,-0.729,-0.7276,-0.7265,-0.7251,-0.724,-0.7232,-0.7219,-0.7206,-0.7191,-0.7179,-0.7164,-0.7144,-0.7126,-0.7112,-0.7105,-0.71,-0.7108,-0.7099,-0.7077,-0.7072,-0.7068,-0.7069,-0.7108,-0.7108,-0.7124,-0.7125,-0.7125,-0.7275,-0.7261,-0.7252,-0.7234,-0.7225,-0.7208,-0.7192,-0.7186,-0.7176,-0.716,-0.7148,-0.7134,-0.712,-0.7097,-0.7081,-0.7077,-0.7068,-0.7073,-0.7073,-0.707,-0.7046,-0.7046,-0.7081,-0.7081,-0.7081,-0.7081,-0.7081,-0.7081,-0.7238,-0.7237,-0.7218,-0.7208,-0.7195,-0.7182,-0.7178,-0.7161,-0.7151,-0.7134,-0.7119,-0.7108,-0.7088,-0.7063,-0.705,-0.704,-0.7032,-0.7033,-0.7034,-0.7034,-0.7037,-0.7013,-0.7037,-0.7037,-0.7037,-0.7037,-0.7037,0,-0.7207,-0.7196,-0.7187,-0.7173,-0.7165,-0.7153,-0.7139,-0.7136,-0.7108,-0.7101,-0.7089,-0.708,-0.7061,-0.7047,-0.703,-0.7017,-0.6998,-0.6995,-0.6996,-0.7003,-0.7011,-0.7006,-0.6966,-0.6995,-0.6995,-0.6994,-0.6994,-0.6994,-0.7169,-0.7169,-0.7144,-0.7139,-0.7128,-0.7121,-0.7113,-0.7088,-0.7081,-0.706,-0.706,-0.7047,-0.7035,-0.7018,-0.6997,-0.6982,-0.6973,-0.6986,-0.6971,-0.6977,-0.6973,-0.6973,-0.6972,-0.6989,-0.699,-0.6991,-0.6991,0,-0.7148,-0.7127,-0.7123,-0.7098,-0.7092,-0.7093,-0.7071,-0.7068,-0.7051,-0.7045,-0.7042,-0.7016,-0.7005,-0.6982,-0.6964,-0.6952,-0.6951,-0.6943,-0.6957,-0.6954,-0.6963,-0.6962,-0.6995,-0.6998,-0.6958,-0.6958,-0.6959,0,-0.7107,-0.7109,-0.7077,-0.7076,-0.7076,-0.7052,-0.7052,-0.7038,-0.7022,-0.7017,-0.6994,-0.6989,-0.6961,-0.6952,-0.6935,-0.693,-0.6927,-0.6917,-0.6913,-0.692,-0.6921,-0.6915,-0.6913,-0.6903,-0.6903,-0.6903,-0.6903,0,-0.7077,-0.7062,-0.7061,-0.7054,-0.7028,-0.7027,-0.7016,-0.6998,-0.6991,-0.6978,-0.6973,-0.696,-0.6953,-0.6942,-0.692,-0.6911,-0.6914,-0.6897,-0.6904,-0.6905,-0.6907,-0.6907,-0.6942,-0.6903,-0.6903,-0.6903,-0.6903,0,-0.7041,-0.703,-0.7031,-0.7008,-0.7005,-0.7004,-0.699,-0.6984,-0.6967,-0.6956,-0.6946,-0.6928,-0.6923,-0.6907,-0.6899,-0.6893,-0.6887,-0.6878,-0.6878,-0.6876,-0.6859,-0.6882,-0.6918,-0.692,-0.6874,-0.6873,-0.6873,0,-0.7012,-0.7008,-0.6987,-0.6989,-0.6984,-0.6959,-0.6957,-0.6943,-0.6929,-0.6922,-0.6906,-0.6898,-0.6882,-0.6876,-0.6875,-0.6858,-0.6866,-0.6857,-0.6845,-0.6845,-0.685,-0.6883,-0.6894,-0.6912,-0.687,-0.687,-0.687,0,-0.6987,-0.6956,-0.6958,-0.6949,-0.6928,-0.6924,-0.6923,-0.691,-0.6907,-0.6894,-0.6891,-0.688,-0.6867,-0.6859,-0.6843,-0.6844,-0.686,-0.683,-0.6829,-0.6835,-0.6867,-0.6877,-0.688,-0.6849,-0.6849,-0.685,-0.6868,0,-0.6936,-0.6932,-0.6936,-0.6919,-0.6913,-0.6913,-0.6891,-0.6887,-0.6872,-0.6858,-0.6854,-0.6837,-0.6825,-0.6823,-0.6809,-0.6818,-0.6813,-0.6799,-0.6783,-0.6805,-0.681,-0.6812,-0.6777,-0.6776,-0.6776,-0.6775,0,0,-0.6913,-0.6907,-0.6886,-0.6884,-0.6877,-0.6852,-0.6854,-0.6845,-0.6826,-0.6822,-0.6812,-0.6795,-0.6783,-0.678,-0.6785,-0.6781,-0.678,-0.6774,-0.6795,-0.6797,-0.6799,-0.6805,-0.6808,-0.6774,-0.6774,-0.6774,-0.6774,0,-0.689,-0.6879,-0.6882,-0.6871,-0.6855,-0.684,-0.6841,-0.682,-0.6811,-0.6808,-0.6787,-0.6782,-0.677,-0.6759,-0.6752,-0.6773,-0.6757,-0.6771,-0.679,-0.679,-0.6793,-0.6796,-0.6803,-0.6805,-0.6772,-0.6772,-0.6773,0,-0.6861,-0.6846,-0.6846,-0.6831,-0.682,-0.6816,-0.6793,-0.6791,-0.6787,-0.676,-0.6758,-0.6746,-0.6729,-0.6731,-0.6731,-0.6722,-0.6738,-0.673,-0.6732,-0.6732,-0.6731,-0.6735,-0.6738,-0.6696,-0.6695,-0.6695,0,0,-0.6844,-0.6841,-0.6818,-0.6824,-0.6819,-0.6797,-0.6793,-0.6779,-0.6766,-0.6761,-0.6745,-0.6732,-0.6725,-0.6721,-0.6713,-0.6718,-0.6712,-0.6721,-0.6725,-0.6728,-0.6729,-0.6729,-0.6733,-0.6695,-0.6694,-0.6694,0,0,-0.6836,-0.681,-0.6798,-0.6803,-0.6791,-0.6769,-0.6773,-0.6758,-0.6749,-0.6747,-0.6723,-0.6718,-0.6719,-0.6709,-0.6702,-0.6706,-0.669,-0.6692,-0.6713,-0.6718,-0.6721,-0.6724,-0.6677,0,0,0,0,0,-0.6802,-0.6813,-0.6803,-0.68,-0.6782,-0.6775,-0.6772,-0.6753,-0.6741,-0.6745,-0.673,-0.6714,-0.67,-0.6694,-0.6691,-0.6699,-0.6686,-0.6688,-0.6689,-0.6718,-0.6723,-0.6727,0,0,0,0,0,0,-0.6801,-0.6798,-0.6802,-0.6781,-0.6777,-0.6774,-0.6751,-0.6746,-0.674,-0.6737,-0.6717,-0.6713,-0.6696,-0.6694,-0.6692,-0.6699,-0.6677,-0.6687,-0.6688,-0.6689,-0.672,-0.6724,-0.6727,0,0,0,0,0,-0.68,-0.6797,-0.6773,-0.6781,-0.6777,-0.6754,-0.675,-0.6746,-0.6741,-0.6718,-0.6714,-0.6727,-0.6697,-0.6694,-0.6692,-0.6701,-0.6679,-0.6678,-0.6687,-0.6688,-0.6689,-0.6722,0,0,0,0,0,0,-0.6799,-0.6793,-0.6772,-0.677,-0.6775,-0.6753,-0.6749,-0.6746,-0.6722,-0.6718,-0.6727,-0.6725,-0.6698,-0.6695,-0.6693,-0.6702,-0.6679,-0.6679,-0.6678,-0.6688,-0.6689,-0.669,0,0,0,0,0,0,-0.6794,-0.6792,-0.6771,-0.6765,-0.6762,-0.6753,-0.675,-0.6746,-0.6722,-0.6732,-0.673,-0.6727,-0.67,-0.6696,-0.6694,-0.6689,-0.668,-0.668,-0.6679,-0.6679,-0.6689,-0.6689,0,0,0,0,0,0,-0.6793,-0.6791,-0.6766,-0.6764,-0.6761,-0.6738,-0.6749,-0.6731,-0.6718,-0.6734,-0.6716,-0.6715,-0.6702,-0.67,-0.6695,-0.6691,-0.669,-0.668,-0.668,-0.6679,-0.6679,0,0,0,0,0,0,0,-0.6792,-0.6811,-0.6783,-0.6762,-0.676,-0.6752,-0.6752,-0.6751,-0.6718,-0.6717,-0.6716,-0.6716,-0.6683,-0.6683,-0.6682,-0.6692,0,0,-0.668,-0.668,0,0,0,0,0,0,0,0,-0.6811,-0.6811,-0.6783,-0.6783,-0.6782,-0.6752,-0.6752,-0.6751,-0.6718,-0.6717,-0.6716,-0.6716,-0.6683,-0.6683,-0.6682,0,0,0,0,0,0,0,0,0,0,0,0,0,0,0,-0.6783,-0.6783,0,-0.6752,-0.6752,-0.6751,-0.6718,-0.6717,-0.6717,-0.6716,-0.6683,-0.6683,-0.6682,0,0,0,0,0,0,0,0,0,0,0,0,0,0,0,0,0,0,0,0,0,0,0,0,0,0,0,0,0,0,0,0,0,0,0,0,0,0,0,0,0,0,0,0,0,0,0,0,0,0,0,0,0,0,0,0,0,0,0,0,0,0,0,0,0,0,0,0,0]}],[{"header":{"parameterUnit":"kt","parameterCategory":2,"dx":1,"dy":1,"la1":30.253999710083008,"la2":30.299108505249023,"lo1":-89.0895004272461,"lo2":-89.04439544677734,"nx":28,"ny":28,"refTime":"2022-09-29T21:00:00:Z","depth":0,"parameterNumber":2,"parameterNumberName":"V-component_of_WINDS"},"data":[-12.5452,-12.5562,-12.5571,-12.5699,-12.5728,-12.5816,-12.5849,-12.5892,-12.5928,-12.603,-12.609,-12.6106,-12.6141,-12.621,-12.6272,-12.6277,-12.6302,-12.6337,-12.6336,-12.6179,-12.6157,-12.6136,-12.6112,-12.6343,-12.6343,-12.6499,-12.65,-12.6501,-12.534,-12.5371,-12.5441,-12.5515,-12.5574,-12.5547,-12.5601,-12.5652,-12.5729,-12.5773,-12.5831,-12.592,-12.599,-12.6012,-12.6079,-12.6126,-12.6115,-12.6144,-12.614,-12.6145,-12.5977,-12.5952,-12.6152,-12.6152,-12.6152,-12.6152,-12.6152,-12.6152,-12.5138,-12.5203,-12.5253,-12.5328,-12.5367,-12.5414,-12.5476,-12.5496,-12.5561,-12.5634,-12.5627,-12.5713,-12.5755,-12.5836,-12.5863,-12.5928,-12.5895,-12.5927,-12.5935,-12.5943,-12.5953,-12.5729,-12.5939,-12.5938,-12.5938,-12.5937,-12.5937,0,-12.4992,-12.4995,-12.5062,-12.5132,-12.5187,-12.524,-12.5289,-12.5327,-12.5329,-12.5382,-12.5459,-12.5504,-12.5591,-12.5661,-12.5723,-12.5744,-12.5715,-12.5712,-12.5734,-12.574,-12.5738,-12.574,-12.5466,-12.5705,-12.5703,-12.5702,-12.5701,-12.57,-12.4789,-12.4863,-12.4917,-12.4962,-12.4991,-12.5064,-12.5108,-12.5104,-12.515,-12.5207,-12.5262,-12.5334,-12.5391,-12.5509,-12.5523,-12.5586,-12.5572,-12.5664,-12.5581,-12.5585,-12.5574,-12.5569,-12.5577,-12.5679,-12.5682,-12.5684,-12.5686,0,-12.4674,-12.4685,-12.4801,-12.4845,-12.4858,-12.4935,-12.497,-12.5032,-12.5042,-12.5128,-12.5147,-12.5161,-12.5234,-12.5234,-12.5315,-12.5313,-12.5436,-12.5421,-12.5423,-12.542,-12.5501,-12.5494,-12.5766,-12.5801,-12.5562,-12.5564,-12.5566,0,-12.4504,-12.46,-12.461,-12.4677,-12.4784,-12.4777,-12.4882,-12.49,-12.4936,-12.5003,-12.4973,-12.5036,-12.5026,-12.5089,-12.5085,-12.5185,-12.52,-12.5203,-12.5201,-12.5206,-12.5206,-12.5227,-12.5216,-12.5192,-12.5191,-12.519,-12.5189,0,-12.4322,-12.4439,-12.4547,-12.4575,-12.4629,-12.4679,-12.4703,-12.4742,-12.4784,-12.4837,-12.4864,-12.4925,-12.4958,-12.5006,-12.5,-12.4944,-12.5122,-12.5044,-12.5125,-12.5126,-12.5163,-12.5161,-12.5404,-12.5187,-12.5186,-12.5186,-12.5185,0,-12.4185,-12.4243,-12.4399,-12.4443,-12.4473,-12.4543,-12.4605,-12.4665,-12.4708,-12.4711,-12.4751,-12.4729,-12.4817,-12.474,-12.4859,-12.4789,-12.4823,-12.4834,-12.4839,-12.4846,-12.4759,-12.4896,-12.5128,-12.5152,-12.4854,-12.4852,-12.4849,0,-12.3974,-12.4133,-12.4128,-12.4274,-12.4347,-12.4309,-12.4386,-12.4425,-12.4435,-12.4496,-12.4505,-12.4574,-12.4516,-12.4537,-12.4597,-12.4608,-12.47,-12.4595,-12.4679,-12.4682,-12.467,-12.4884,-12.4918,-12.5077,-12.4814,-12.4817,-12.482,0,-12.3811,-12.3877,-12.3903,-12.3934,-12.3986,-12.4045,-12.4133,-12.4201,-12.4242,-12.4287,-12.436,-12.4455,-12.4415,-12.4449,-12.4436,-12.4498,-12.4637,-12.4446,-12.4446,-12.448,-12.4795,-12.4828,-12.4855,-12.4614,-12.4618,-12.4622,-12.4792,0,-12.3603,-12.3683,-12.3754,-12.3822,-12.3868,-12.3958,-12.396,-12.4008,-12.3993,-12.4,-12.4106,-12.4133,-12.4197,-12.4227,-12.421,-12.4352,-12.4327,-12.4283,-12.4206,-12.4347,-12.4403,-12.4425,-12.4124,-12.4121,-12.4119,-12.4118,0,0,-12.3399,-12.3512,-12.3502,-12.3588,-12.3626,-12.3583,-12.368,-12.3711,-12.3773,-12.38,-12.3758,-12.3895,-12.3918,-12.4045,-12.4089,-12.4114,-12.4139,-12.4089,-12.428,-12.4298,-12.4315,-12.4375,-12.4398,-12.4114,-12.4114,-12.4113,-12.4112,0,-12.3323,-12.3354,-12.345,-12.3483,-12.3531,-12.3535,-12.3558,-12.3596,-12.3605,-12.3708,-12.3668,-12.373,-12.3838,-12.3869,-12.3898,-12.4075,-12.4038,-12.4094,-12.419,-12.4261,-12.4281,-12.43,-12.4363,-12.4386,-12.4108,-12.4108,-12.4108,0,-12.3163,-12.3193,-12.324,-12.3325,-12.3354,-12.3428,-12.335,-12.3431,-12.3485,-12.3427,-12.353,-12.3544,-12.3584,-12.3704,-12.3757,-12.3719,-12.3947,-12.3874,-12.3886,-12.3891,-12.3959,-12.3983,-12.4006,-12.3714,-12.3712,-12.3711,0,0,-12.3096,-12.317,-12.3198,-12.3308,-12.333,-12.3336,-12.3374,-12.3362,-12.3401,-12.3417,-12.3434,-12.3471,-12.3534,-12.3575,-12.3633,-12.3764,-12.3771,-12.3825,-12.3844,-12.3859,-12.3873,-12.3944,-12.3969,-12.3706,-12.3706,-12.3706,0,0,-12.3063,-12.3102,-12.308,-12.3208,-12.3249,-12.3281,-12.3347,-12.332,-12.3372,-12.3361,-12.3341,-12.3349,-12.3461,-12.3475,-12.3408,-12.3605,-12.3529,-12.3545,-12.3591,-12.3615,-12.3633,-12.3626,-12.3327,0,0,0,0,0,-12.2985,-12.3098,-12.3077,-12.3099,-12.3203,-12.3293,-12.3306,-12.3294,-12.3241,-12.3294,-12.3304,-12.3263,-12.3435,-12.3375,-12.3395,-12.3469,-12.364,-12.3652,-12.3663,-12.3754,-12.3778,-12.3799,0,0,0,0,0,0,-12.2994,-12.3021,-12.3074,-12.3112,-12.3135,-12.3289,-12.3197,-12.3197,-12.3235,-12.3226,-12.3263,-12.3264,-12.3253,-12.3364,-12.3382,-12.3453,-12.3321,-12.3645,-12.3655,-12.3664,-12.3762,-12.3782,-12.3799,0,0,0,0,0,-12.3,-12.3022,-12.3193,-12.311,-12.313,-12.3141,-12.3193,-12.3192,-12.3221,-12.3236,-12.3236,-12.3208,-12.3255,-12.3269,-12.3375,-12.3445,-12.3308,-12.3315,-12.3651,-12.3659,-12.3666,-12.3772,0,0,0,0,0,0,-12.3005,-12.302,-12.3196,-12.3202,-12.3067,-12.3132,-12.3142,-12.3188,-12.3227,-12.3229,-12.318,-12.3172,-12.3258,-12.3268,-12.328,-12.3444,-12.3298,-12.3305,-12.3309,-12.3657,-12.3663,-12.3669,0,0,0,0,0,0,-12.3009,-12.3025,-12.3199,-12.3145,-12.3144,-12.3124,-12.3133,-12.3219,-12.3228,-12.3169,-12.3164,-12.3176,-12.324,-12.3269,-12.3277,-12.3412,-12.329,-12.3297,-12.3301,-12.3304,-12.3662,-12.3667,0,0,0,0,0,0,-12.3015,-12.303,-12.3144,-12.3143,-12.3142,-12.3203,-12.3199,-12.3305,-12.3186,-12.3168,-12.3175,-12.3169,-12.3241,-12.3249,-12.3276,-12.3407,-12.3411,-12.329,-12.3295,-12.3298,-12.33,0,0,0,0,0,0,0,-12.3021,-12.2929,-12.3164,-12.3141,-12.314,-12.3253,-12.3255,-12.3256,-12.3185,-12.318,-12.3176,-12.3172,-12.3252,-12.326,-12.3267,-12.3404,0,0,-12.329,-12.3293,0,0,0,0,0,0,0,0,-12.2922,-12.2927,-12.3164,-12.3165,-12.3166,-12.3254,-12.3255,-12.3256,-12.3184,-12.3181,-12.3177,-12.3173,-12.3254,-12.326,-12.3266,0,0,0,0,0,0,0,0,0,0,0,0,0,0,0,-12.3164,-12.3165,0,-12.3254,-12.3255,-12.3256,-12.3184,-12.3181,-12.3178,-12.3175,-12.3256,-12.3261,-12.3266,0,0,0,0,0,0,0,0,0,0,0,0,0,0,0,0,0,0,0,0,0,0,0,0,0,0,0,0,0,0,0,0,0,0,0,0,0,0,0,0,0,0,0,0,0,0,0,0,0,0,0,0,0,0,0,0,0,0,0,0,0,0,0,0,0,0,0,0,0]}]]]